COSMOS 1275 DEB, 14627

Orbit data source: Space-Track

COSMOS 1275 DEB, 14627 is space debris in LEO originally from a launch on Thu, 04 Jun 1981 UTC launched from the Plesetsk Missile And Space Complex (PKMTR). Debris objects in space refer to the collection of defunct objects orbiting the Earth. Examples of debris include non-operational satellites, rocket bodies, and fragments generated from explosions, collisions, or faulty payload assembly.

Loading next visibility...
Identifier
14627, 1981-053JQ
Orbit
LEO
Country
Flag of CISCIS
Related business
Manufacturer
Unknown
Mission
Spacecraft
Bus & Motor
Unknown
Mass
Unknown
Launch date (UTC)
1981-06-04 (45 years ago)
Launch vehicle
Unknown
Launch site
Plesetsk Missile And Space Complex (PKMTR)
Object type
Payload
Rocket body
Debris
Shape & HBR
Unknown shape, 0.1 m
Radar Cross Section
Small (<0.1 m²)

Expand to show TLE details & history
Last TLE update: 2 days ago

TLE from 2 days ago
0 COSMOS 1275 DEB
1 14627U 81053JQ  26103.01761734  .00001224  00000-0  71166-3 0  9991
2 14627  82.7773  97.8965 0032513 186.7830 229.5197 14.07662554152268
Epoch: 2026-04-13T00:25Z
TLE epoch observation values (Epoch: 2026-04-13T00:25:22.138Z)
Latitude
55.44966°
Longitude
-99.11059°
Altitude
891.934 km
Speed
7.404 km/s
True Right ascension
07h 13m 47s
True Declination
55° 17' 30"
Sunlit
Object was in daylight at epoch
Visualization orbit readout
Latitude
Unknown
Longitude
Unknown
Altitude
Unknown
Speed
Unknown
Apparent Right ascension
Unknown
Apparent Declination
Unknown
Sunlit
N/A
Visualization observer readout
Local Sidereal Time
05:59:23
Azimuth
Unknown
Elevation
Unknown
Doppler factor
Unknown
Orbital elements
Apogee altitude
888.04 km
Perigee altitude
840.944 km
Semi-major axis
7,242.629 km
Eccentricity
0.00325
Inclination
82.7773°
RAAN
97.8965°
Arg. of periapsis
186.783°
True anomaly
229.23706°
Mean anomaly
229.5197°
Eccentric anomaly
229.3783°
Mean motion
3.52127 °/min
Orbital period
102.24 mins
BSTAR
0.00071166
Loading maneuver chart data...
Computing Atmospheric mass density...
Loading historical data...
Loading historical data...
Loading historical data...
Loading historical data...
Loading historical data...
Loading historical data...
Loading historical data...

Documentation

Showing up to 5 results
|